When you browse on this site, cookies collect data to enhance your experience and personalize the content and advertising you see.
Visit our Privacy Policy to learn more. By continuing to use the site, you agree to this use of cookies and data.
  • En España
  • Lista de países
  • Para 7 días
  • Temperatura del agua
  • Mapa Satelital
  • El tiempo en el mapa
  • Informadores
  • user-avatar
    Iniciar sesión

    Tiempo cada hora Kruhlyk

    Hoy, 25 Marzo, Lunes

    Tiempo Temperatura Precipitaciones Viento Presión Humedad
    00:00 +5°C° 0 mm 3 mps 755 mmHg 65%
    01:00 +4°C° 0 mm 3 mps 755 mmHg 69%
    02:00 +5°C° 0 mm 2 mps 754 mmHg 76%
    03:00 +4°C° 0 mm 2 mps 754 mmHg 78%
    04:00 +4°C° 0 mm 2 mps 754 mmHg 80%
    05:00 +4°C° 0 mm 2 mps 754 mmHg 81%
    06:00 +6°C° 0 mm 1 mps 754 mmHg 76%
    07:00 +7°C° 0 mm 1 mps 754 mmHg 70%
    08:00 +8°C° 0 mm 1 mps 754 mmHg 66%
    09:00 +9°C° 0 mm 1 mps 753 mmHg 59%
    10:00 +9°C° 0 mm 2 mps 753 mmHg 53%
    11:00 +12°C° 0 mm 2 mps 753 mmHg 46%
    12:00 +12°C° 0 mm 2 mps 753 mmHg 44%
    13:00 +13°C° 0 mm 2 mps 753 mmHg 42%
    14:00 +12°C° 0 mm 3 mps 752 mmHg 39%
    15:00 +12°C° 0 mm 3 mps 752 mmHg 42%
    16:00 +12°C° 0 mm 3 mps 752 mmHg 45%
    17:00 +12°C° 0 mm 3 mps 752 mmHg 48%
    18:00 +11°C° 0.5 mm 4 mps 752 mmHg 56%
    19:00 +10°C° 0.5 mm 4 mps 751 mmHg 64%
    20:00 +8°C° 0.5 mm 5 mps 751 mmHg 72%
    21:00 +8°C° 0.7 mm 6 mps 751 mmHg 73%
    22:00 +7°C° 0.7 mm 6 mps 751 mmHg 74%
    23:00 +5°C° 0.7 mm 7 mps 751 mmHg 75%

    Mañana, 26 Marzo, Martes

    Tiempo Temperatura Precipitaciones Viento Presión Humedad
    00:00 +5°C° 0.1 mm 7 mps 751 mmHg 75%
    01:00 +5°C° 0.1 mm 7 mps 751 mmHg 75%
    02:00 +5°C° 0.1 mm 6 mps 751 mmHg 74%
    03:00 +4°C° 0 mm 6 mps 751 mmHg 75%
    04:00 +4°C° 0 mm 6 mps 751 mmHg 76%
    05:00 +4°C° 0 mm 6 mps 751 mmHg 77%
    06:00 +6°C° 0 mm 5 mps 751 mmHg 76%
    07:00 +6°C° 0 mm 5 mps 752 mmHg 76%
    08:00 +7°C° 0 mm 5 mps 752 mmHg 76%
    09:00 +7°C° 0.4 mm 5 mps 752 mmHg 78%
    10:00 +7°C° 0.4 mm 4 mps 752 mmHg 81%
    11:00 +7°C° 0.4 mm 4 mps 752 mmHg 83%
    12:00 +7°C° 0.1 mm 4 mps 752 mmHg 81%
    13:00 +8°C° 0.1 mm 4 mps 752 mmHg 80%
    14:00 +10°C° 0.1 mm 4 mps 752 mmHg 78%
    15:00 +10°C° 0 mm 3 mps 751 mmHg 74%
    16:00 +10°C° 0 mm 3 mps 751 mmHg 71%
    17:00 +11°C° 0 mm 3 mps 751 mmHg 67%
    18:00 +10°C° 0.1 mm 3 mps 752 mmHg 68%
    19:00 +9°C° 0.1 mm 3 mps 752 mmHg 70%
    20:00 +9°C° 0.1 mm 3 mps 752 mmHg 72%
    21:00 +8°C° 0 mm 3 mps 753 mmHg 72%
    22:00 +8°C° 0 mm 3 mps 753 mmHg 72%
    23:00 +7°C° 0 mm 3 mps 753 mmHg 72%

    Pasado mañana, 27 Marzo, Miércoles

    Tiempo Temperatura Precipitaciones Viento Presión Humedad
    00:00 +5°C° 0 mm 3 mps 753 mmHg 73%
    01:00 +5°C° 0 mm 3 mps 753 mmHg 74%
    02:00 +5°C° 0 mm 2 mps 753 mmHg 75%
    03:00 +4°C° 0 mm 2 mps 753 mmHg 76%
    04:00 +4°C° 0 mm 2 mps 753 mmHg 77%
    05:00 +4°C° 0 mm 1 mps 753 mmHg 78%
    06:00 +5°C° 0 mm 2 mps 753 mmHg 73%
    07:00 +5°C° 0 mm 3 mps 754 mmHg 68%
    08:00 +6°C° 0 mm 4 mps 754 mmHg 63%
    09:00 +6°C° 0.3 mm 5 mps 754 mmHg 61%
    10:00 +5°C° 0.3 mm 7 mps 754 mmHg 58%
    11:00 +6°C° 0.3 mm 8 mps 754 mmHg 56%
    12:00 +5°C° 0.5 mm 8 mps 754 mmHg 55%
    13:00 +5°C° 0.5 mm 8 mps 754 mmHg 54%
    14:00 +4°C° 0.5 mm 8 mps 754 mmHg 53%
    15:00 +4°C° 0.1 mm 7 mps 754 mmHg 55%
    16:00 +4°C° 0.1 mm 6 mps 754 mmHg 57%
    17:00 +5°C° 0.1 mm 5 mps 754 mmHg 60%
    18:00 +4°C° 0 mm 4 mps 755 mmHg 65%
    19:00 +4°C° 0 mm 4 mps 756 mmHg 71%
    20:00 +3°C° 0 mm 3 mps 756 mmHg 77%
    21:00 +2°C° 0 mm 3 mps 756 mmHg 80%
    22:00 +2°C° 0 mm 3 mps 757 mmHg 84%
    23:00 0°C° 0 mm 4 mps 757 mmHg 87%

    28 Marzo, Jueves

    Tiempo Temperatura Precipitaciones Viento Presión Humedad
    00:00 +1°C° 0.1 mm 3 mps 757 mmHg 87%
    01:00 +1°C° 0.1 mm 3 mps 757 mmHg 87%
    02:00 +1°C° 0.1 mm 3 mps 758 mmHg 86%
    03:00 +1°C° 0.2 mm 3 mps 758 mmHg 84%
    04:00 +1°C° 0.2 mm 3 mps 758 mmHg 82%
    05:00 0°C° 0.2 mm 4 mps 758 mmHg 79%
    06:00 +1°C° 0 mm 4 mps 759 mmHg 76%
    07:00 +1°C° 0 mm 5 mps 759 mmHg 72%
    08:00 +2°C° 0 mm 6 mps 760 mmHg 68%
    09:00 +3°C° 0 mm 6 mps 760 mmHg 61%
    10:00 +4°C° 0 mm 6 mps 761 mmHg 53%
    11:00 +5°C° 0 mm 6 mps 761 mmHg 46%
    12:00 +5°C° 0.1 mm 6 mps 761 mmHg 46%
    13:00 +5°C° 0.1 mm 6 mps 761 mmHg 47%
    14:00 +5°C° 0.1 mm 6 mps 761 mmHg 48%
    15:00 +5°C° 0.2 mm 6 mps 762 mmHg 48%
    16:00 +4°C° 0.2 mm 6 mps 762 mmHg 48%
    17:00 +4°C° 0.2 mm 6 mps 762 mmHg 48%
    18:00 +3°C° 0 mm 5 mps 763 mmHg 53%
    19:00 +2°C° 0 mm 5 mps 763 mmHg 58%
    20:00 +1°C° 0 mm 4 mps 764 mmHg 64%
    21:00 +1°C° 0 mm 4 mps 764 mmHg 66%
    22:00 +1°C° 0 mm 3 mps 764 mmHg 69%
    23:00 +1°C° 0 mm 3 mps 764 mmHg 72%

    29 Marzo, Viernes

    Tiempo Temperatura Precipitaciones Viento Presión Humedad
    00:00 +1°C° 0 mm 3 mps 765 mmHg 75%
    01:00 0°C° 0 mm 3 mps 765 mmHg 77%
    02:00 0°C° 0 mm 3 mps 765 mmHg 79%
    03:00 0°C° 0 mm 3 mps 765 mmHg 80%
    04:00 -1°C° 0 mm 3 mps 765 mmHg 81%
    05:00 -1°C° 0 mm 3 mps 765 mmHg 82%
    06:00 0°C° 0 mm 3 mps 765 mmHg 74%
    07:00 0°C° 0 mm 4 mps 765 mmHg 66%
    08:00 +1°C° 0 mm 4 mps 764 mmHg 59%
    09:00 +2°C° 0 mm 5 mps 764 mmHg 52%
    10:00 +3°C° 0 mm 5 mps 764 mmHg 46%
    11:00 +6°C° 0 mm 5 mps 763 mmHg 39%
    12:00 +5°C° 0 mm 6 mps 762 mmHg 40%
    13:00 +7°C° 0 mm 6 mps 761 mmHg 40%
    14:00 +7°C° 0 mm 6 mps 761 mmHg 40%
    15:00 +7°C° 0 mm 6 mps 760 mmHg 43%
    16:00 +7°C° 0 mm 6 mps 759 mmHg 45%
    17:00 +7°C° 0 mm 6 mps 759 mmHg 48%
    18:00 +6°C° 0.1 mm 5 mps 759 mmHg 52%
    19:00 +6°C° 0.1 mm 5 mps 758 mmHg 56%
    20:00 +6°C° 0.1 mm 5 mps 758 mmHg 60%
    21:00 +5°C° 0.2 mm 5 mps 758 mmHg 64%
    22:00 +3°C° 0.2 mm 5 mps 758 mmHg 69%
    23:00 +2°C° 0.2 mm 5 mps 758 mmHg 73%

    30 Marzo, Sábado

    Tiempo Temperatura Precipitaciones Viento Presión Humedad
    00:00 +2°C° 0 mm 5 mps 758 mmHg 75%
    01:00 +1°C° 0 mm 5 mps 758 mmHg 77%
    02:00 +1°C° 0 mm 5 mps 758 mmHg 79%
    03:00 0°C° 0 mm 4 mps 759 mmHg 80%
    04:00 0°C° 0 mm 4 mps 759 mmHg 82%
    05:00 0°C° 0 mm 4 mps 759 mmHg 84%
    06:00 +1°C° 0 mm 4 mps 760 mmHg 79%
    07:00 +2°C° 0 mm 5 mps 760 mmHg 74%
    08:00 +2°C° 0 mm 5 mps 760 mmHg 70%
    09:00 +5°C° 0 mm 5 mps 761 mmHg 64%
    10:00 +6°C° 0 mm 4 mps 761 mmHg 58%
    11:00 +8°C° 0 mm 4 mps 761 mmHg 52%
    12:00 +8°C° 0 mm 4 mps 760 mmHg 50%
    13:00 +10°C° 0 mm 4 mps 760 mmHg 48%
    14:00 +10°C° 0 mm 3 mps 760 mmHg 46%
    15:00 +10°C° 0 mm 3 mps 760 mmHg 47%
    16:00 +10°C° 0 mm 3 mps 760 mmHg 48%
    17:00 +10°C° 0 mm 3 mps 760 mmHg 49%
    18:00 +9°C° 0 mm 3 mps 760 mmHg 54%
    19:00 +7°C° 0 mm 3 mps 760 mmHg 60%
    20:00 +5°C° 0 mm 3 mps 761 mmHg 65%
    21:00 +6°C° 0 mm 2 mps 761 mmHg 67%
    22:00 +5°C° 0 mm 2 mps 761 mmHg 70%
    23:00 +5°C° 0 mm 2 mps 760 mmHg 72%
    Mostrar más